sat.trackr.live / text

‹ back to catalog

COSMOS 2549

NORAD 47546 · 2021-008A

PAYLOAD ACTIVE UNKNOWN

§ Identity

Operator
Country
CIS
Launch date
2021-02-02
Launch site
PLMSC
Launch vehicle
Mass (kg)
RCS (m²)

External: N2YO · Heavens-Above · Gunter

§ Orbital elements

Epoch: 2026-05-25T04:39:48.300192Z

Period
103.08 min
Inclination
67.1513°
Eccentricity
0.0005703
Mean motion
13.97020311 rev/d
Perigee alt
900.0 km
Apogee alt
908.3 km
Semi-major
7,282.3 km
B*
2.4937e-5
RAAN
40.9819°
Arg perigee
263.9116°
Mean anomaly
96.1319°
Rev number
27,062

§ Raw data

COSMOS 25491 47546U 21008A   26145.19430903 -.00000040  00000+0  24937-4 0  99972 47546  67.1513  40.9819 0005703 263.9116  96.1319 13.97020311270628

JSON: /api/v1/satellites/47546 · /tle

For live sub-satellite position, see the globe view (requires WebGL).

§ Visibility from observer

Set your observer location to see the next 7 days of passes ≥ 10°. The values pass through the URL so the page stays shareable.

No JS? Fill the form by hand. The geolocation button needs JavaScript.